カタログに戻る

STARLINK-35367

運用中通信VLEO
NORAD 65883·PAYLOAD·🇺🇸 United States

打ち上げ Oct 7, 2025 から Cape Canaveral Space Force Station

Loading…

次のパス (今後24時間)

TLE

最新Source: CelesTrak SupGP

元期: Sep 14, 2026, 21:31 UTC

1 65883C 25224B   26257.89701389  .00023973  00000+0  70808-3 0  2578
2 65883  53.1578 208.1241 0001345  91.2847 301.4532 15.34388080    12

AllMySatでSTARLINK-35367をリアルタイム追跡

Download on the App Store